This is the latest recevied weather packets stored in our database for station/object N3TTT-13. If no packets are shown the sender has not sent any weather packets the latest 10 day(s).
| Time | Temp. | Humidity | Pressure | Rain* | Wind** | Luminosity | Snow |
|---|---|---|---|---|---|---|---|
| 1777505617 | 12.78° C | 76% | 1009.1 hPa | 0 mm | - | 0 W/m² | - |
| 1777505315 | 12.78° C | 76% | 1009.1 hPa | 0 mm | - | 0 W/m² | - |
| 1777505011 | 12.78° C | 74% | 1009.2 hPa | 0 mm | - | 0 W/m² | - |
| 1777504708 | 12.78° C | 74% | 1009.8 hPa | 0 mm | - | 0 W/m² | - |
| 1777504406 | 12.78° C | 75% | 1010 hPa | 0 mm | - | 1 W/m² | - |
| 1777504101 | 13.33° C | 73% | 1009.8 hPa | 0 mm | - | 2 W/m² | - |
| 1777503796 | 13.33° C | 72% | 1009.8 hPa | 0 mm | - | 2 W/m² | - |
| 1777503493 | 13.33° C | 73% | 1009.8 hPa | 0 mm | - | 4 W/m² | - |
| 1777503189 | 13.33° C | 73% | 1010 hPa | 0 mm | - | 6 W/m² | - |
| 1777502886 | 13.33° C | 74% | 1010 hPa | 0 mm | - | 11 W/m² | - |
| 1777502584 | 13.33° C | 75% | 1009.6 hPa | 0 mm | - | 14 W/m² | - |
| 1777502281 | 13.33° C | 75% | 1010.1 hPa | 0 mm | - | 18 W/m² | - |
| 1777501978 | 13.33° C | 75% | 1010 hPa | 0 mm | - | 15 W/m² | - |
| 1777501675 | 13.33° C | 75% | 1010.4 hPa | 0 mm | - | 21 W/m² | - |
| 1777501371 | 13.33° C | 74% | 1010.1 hPa | 0 mm | - | 27 W/m² | - |
| 1777501069 | 13.33° C | 74% | 1009.8 hPa | 0 mm | - | 26 W/m² | - |
| 1777500767 | 13.89° C | 74% | 1009.9 hPa | 0 mm | - | 23 W/m² | - |
| 1777500464 | 13.89° C | 73% | 1010 hPa | 0 mm | - | 21 W/m² | - |
| 1777500160 | 13.89° C | 70% | 1010 hPa | 0 mm | - | 21 W/m² | - |
| 1777499857 | 14.44° C | 70% | 1009.7 hPa | 0 mm | - | 19 W/m² | - |
| 1777499553 | 14.44° C | 69% | 1010 hPa | 0 mm | - | 22 W/m² | - |
| 1777499251 | 14.44° C | 70% | 1010.1 hPa | 0 mm | - | 26 W/m² | - |
| 1777498948 | 14.44° C | 70% | 1010 hPa | 0 mm | - | 30 W/m² | - |
| 1777498644 | 14.44° C | 68% | 1010 hPa | 0 mm | - | 35 W/m² | - |
| 1777498340 | 15° C | 68% | 1010.2 hPa | 0 mm | - | 41 W/m² | - |
* Rain latest hour (hover to see other rain measurements)
** Current wind speed in m/s (hover to see current wind gust speed)